EAG6204 SBKP-SBEG

Flight info

Callsign EAG6204
Flight time 3h 2m
Altitude 38000
Route VUPOG UM417 VUDIR/N0477F400 UM417 UMGUP DCT IRUMO
Aircraft B748/H-SDE3FGHIM1M2RWXY/LB1

Departure

Time 2026-04-20 18:35
Airport Viracopos International Airport (SBKP)

Arrival

Time 2026-04-20 21:38
Airport Eduardo Gomes International Airport (SBEG)
Time Latitude Longitude Altitude Speed Heading
2026-04-20 17:46 -23.00590 -47.14297 2183 ft 0 kts 218°
2026-04-20 18:22 -23.00581 -47.14290 2183 ft 4 kts 220°
2026-04-20 18:23 -23.00562 -47.14270 2183 ft 4 kts 230°
2026-04-20 18:23 -23.00546 -47.14248 2183 ft 4 kts 245°
2026-04-20 18:23 -23.00539 -47.14223 2183 ft 4 kts 271°
2026-04-20 18:23 -23.00542 -47.14204 2183 ft 2 kts 308°
2026-04-20 18:24 -23.00543 -47.14202 2183 ft 0 kts 308°
2026-04-20 18:30 -23.00542 -47.14204 2183 ft 1 kts 308°
2026-04-20 18:30 -23.00531 -47.14219 2183 ft 4 kts 308°
2026-04-20 18:30 -23.00505 -47.14251 2183 ft 7 kts 310°
2026-04-20 18:30 -23.00464 -47.14305 2183 ft 11 kts 310°
2026-04-20 18:31 -23.00408 -47.14379 2183 ft 14 kts 308°
2026-04-20 18:31 -23.00341 -47.14473 2183 ft 17 kts 308°
2026-04-20 18:31 -23.00269 -47.14572 2183 ft 16 kts 308°
2026-04-20 18:31 -23.00202 -47.14666 2183 ft 15 kts 308°
2026-04-20 18:32 -23.00139 -47.14754 2183 ft 14 kts 308°
2026-04-20 18:32 -23.00056 -47.14803 2183 ft 13 kts 351°
2026-04-20 18:32 -22.99966 -47.14799 2183 ft 13 kts 23°
2026-04-20 18:32 -22.99900 -47.14738 2183 ft 12 kts 46°
2026-04-20 18:33 -22.99867 -47.14677 2183 ft 5 kts 116°
2026-04-20 18:33 -22.99887 -47.14645 2183 ft 5 kts 127°
2026-04-20 18:33 -22.99896 -47.14633 2183 ft 1 kts 127°
2026-04-20 18:33 -22.99900 -47.14627 2183 ft 1 kts 127°
2026-04-20 18:34 -22.99903 -47.14622 2183 ft 1 kts 127°
2026-04-20 18:34 -22.99905 -47.14619 2183 ft 0 kts 127°
2026-04-20 18:34 -22.99920 -47.14599 2183 ft 18 kts 127°
2026-04-20 18:34 -23.00120 -47.14319 2183 ft 76 kts 128°
2026-04-20 18:35 -23.00565 -47.13698 2184 ft 132 kts 128°
2026-04-20 18:35 -23.01235 -47.12761 2193 ft 178 kts 128°
2026-04-20 18:35 -23.02038 -47.11619 2475 ft 197 kts 128°
2026-04-20 18:35 -23.02808 -47.10414 3276 ft 193 kts 116°
2026-04-20 18:36 -23.03047 -47.08948 3736 ft 205 kts 86°
2026-04-20 18:36 -23.02657 -47.07482 4266 ft 200 kts 70°
2026-04-20 18:36 -23.02104 -47.06112 4769 ft 197 kts 69°
2026-04-20 18:36 -23.01576 -47.04724 5156 ft 201 kts 69°
2026-04-20 18:37 -23.01038 -47.03273 5356 ft 215 kts 69°
2026-04-20 18:37 -23.00281 -47.01825 5470 ft 230 kts 53°
2026-04-20 18:37 -22.99108 -47.00552 5580 ft 248 kts 43°
2026-04-20 18:37 -22.97699 -46.99364 5696 ft 265 kts 38°
2026-04-20 18:38 -22.96143 -46.98166 5828 ft 283 kts 36°
2026-04-20 18:38 -22.95050 -46.97340 5936 ft 295 kts 36°
2026-04-20 18:38 -22.93361 -46.96013 6384 ft 304 kts 37°
2026-04-20 18:38 -22.90815 -46.94691 7121 ft 313 kts 11°
2026-04-20 18:39 -22.88643 -46.94740 7787 ft 315 kts 348°
2026-04-20 18:39 -22.86594 -46.95588 8443 ft 318 kts 333°
2026-04-20 18:39 -22.85279 -46.96398 8876 ft 321 kts 328°
2026-04-20 18:39 -22.83437 -46.97698 9634 ft 321 kts 326°
2026-04-20 18:40 -22.81556 -46.98997 10423 ft 321 kts 327°
2026-04-20 18:40 -22.79582 -47.00271 10680 ft 340 kts 328°
2026-04-20 18:40 -22.77468 -47.01573 10879 ft 359 kts 329°
2026-04-20 18:40 -22.75215 -47.02904 11085 ft 378 kts 331°
2026-04-20 18:41 -22.72805 -47.04218 11273 ft 396 kts 333°
2026-04-20 18:41 -22.70287 -47.05571 11520 ft 412 kts 332°
2026-04-20 18:41 -22.67673 -47.07001 11807 ft 425 kts 332°
2026-04-20 18:41 -22.65025 -47.08448 12419 ft 430 kts 331°
2026-04-20 18:42 -22.62333 -47.09926 12987 ft 435 kts 331°
2026-04-20 18:42 -22.59624 -47.11409 13706 ft 436 kts 331°
2026-04-20 18:42 -22.56927 -47.12888 14728 ft 431 kts 331°
2026-04-20 18:42 -22.54297 -47.14336 15632 ft 427 kts 331°
2026-04-20 18:43 -22.51678 -47.15773 16709 ft 420 kts 330°
2026-04-20 18:43 -22.49107 -47.17181 17843 ft 406 kts 330°
2026-04-20 18:43 -22.46621 -47.18541 18985 ft 397 kts 330°
2026-04-20 18:43 -22.44154 -47.19889 19669 ft 398 kts 330°
2026-04-20 18:44 -22.41660 -47.21251 20135 ft 403 kts 330°
2026-04-20 18:44 -22.39137 -47.22628 20495 ft 411 kts 330°
2026-04-20 18:44 -22.36556 -47.24037 20879 ft 418 kts 330°
2026-04-20 18:44 -22.33950 -47.25459 21282 ft 424 kts 330°
2026-04-20 18:45 -22.31295 -47.26907 21744 ft 428 kts 330°
2026-04-20 18:45 -22.28723 -47.28552 22123 ft 431 kts 322°
2026-04-20 18:45 -22.26360 -47.30555 22654 ft 431 kts 317°
2026-04-20 18:45 -22.24132 -47.32686 23145 ft 433 kts 315°
2026-04-20 18:46 -22.21937 -47.34928 23595 ft 436 kts 314°
2026-04-20 18:46 -22.19746 -47.37212 24047 ft 440 kts 314°
2026-04-20 18:46 -22.17525 -47.39511 24468 ft 444 kts 315°
2026-04-20 18:46 -22.15282 -47.41815 24887 ft 447 kts 315°
2026-04-20 18:47 -22.13013 -47.44134 25286 ft 451 kts 315°
2026-04-20 18:47 -22.10719 -47.46471 25699 ft 454 kts 315°
2026-04-20 18:47 -22.08411 -47.48817 26078 ft 458 kts 315°
2026-04-20 18:47 -22.06084 -47.51178 26499 ft 460 kts 315°
2026-04-20 18:48 -22.03739 -47.53556 26803 ft 464 kts 315°
2026-04-20 18:48 -22.01380 -47.55963 27063 ft 469 kts 315°
2026-04-20 18:48 -21.98996 -47.58391 27365 ft 473 kts 315°
2026-04-20 18:48 -21.96597 -47.60830 27667 ft 477 kts 315°
2026-04-20 18:49 -21.94162 -47.63300 27946 ft 481 kts 315°
2026-04-20 18:49 -21.91749 -47.65745 28299 ft 483 kts 315°
2026-04-20 18:49 -21.89267 -47.68258 28636 ft 486 kts 315°
2026-04-20 18:49 -21.86830 -47.70723 29026 ft 487 kts 315°
2026-04-20 18:50 -21.84353 -47.73228 29346 ft 489 kts 315°
2026-04-20 18:50 -21.81859 -47.75747 29635 ft 492 kts 315°
2026-04-20 18:50 -21.79349 -47.78281 29944 ft 494 kts 315°
2026-04-20 18:50 -21.76835 -47.80818 30387 ft 493 kts 315°
2026-04-20 18:51 -21.74369 -47.83305 30923 ft 489 kts 315°
2026-04-20 18:51 -21.71881 -47.85814 31311 ft 489 kts 315°
2026-04-20 18:51 -21.69397 -47.88317 31610 ft 490 kts 314°
2026-04-20 18:51 -21.66902 -47.90829 31884 ft 492 kts 314°
2026-04-20 18:52 -21.64398 -47.93350 32138 ft 494 kts 314°
2026-04-20 18:52 -21.61889 -47.95875 32439 ft 494 kts 314°
2026-04-20 18:52 -21.59402 -47.98375 33075 ft 486 kts 314°
2026-04-20 18:52 -21.56937 -48.00853 33485 ft 484 kts 314°
2026-04-20 18:53 -21.54477 -48.03324 33694 ft 486 kts 314°
2026-04-20 18:53 -21.52002 -48.05810 34000 ft 485 kts 314°
2026-04-20 18:53 -21.49545 -48.08277 34446 ft 481 kts 314°
2026-04-20 18:53 -21.47104 -48.10725 34691 ft 481 kts 314°
2026-04-20 18:54 -21.44645 -48.13191 34906 ft 481 kts 314°
2026-04-20 18:54 -21.42203 -48.15639 35140 ft 481 kts 314°
2026-04-20 18:54 -21.39749 -48.18097 35347 ft 481 kts 314°
2026-04-20 18:54 -21.37303 -48.20546 35578 ft 481 kts 314°
2026-04-20 18:55 -21.34884 -48.22967 35805 ft 479 kts 314°
2026-04-20 18:55 -21.32447 -48.25405 35985 ft 479 kts 314°
2026-04-20 18:55 -21.27532 -48.30318 36037 ft 487 kts 314°
2026-04-20 18:56 -21.22517 -48.35327 36023 ft 497 kts 314°
2026-04-20 18:56 -21.17407 -48.40424 36023 ft 505 kts 314°
2026-04-20 18:57 -21.12226 -48.45588 36024 ft 509 kts 314°
2026-04-20 18:57 -21.07029 -48.50763 36030 ft 511 kts 314°
2026-04-20 18:58 -21.01824 -48.55940 36033 ft 511 kts 314°
2026-04-20 18:58 -20.96650 -48.61091 36035 ft 511 kts 314°
2026-04-20 18:59 -20.91440 -48.66273 36033 ft 511 kts 314°
2026-04-20 18:59 -20.86210 -48.71455 36038 ft 511 kts 314°
2026-04-20 19:00 -20.80983 -48.76628 36040 ft 511 kts 314°
2026-04-20 19:00 -20.75767 -48.81784 36041 ft 511 kts 315°
2026-04-20 19:01 -20.70178 -48.86512 36045 ft 513 kts 322°
2026-04-20 19:01 -20.64285 -48.90844 36045 ft 514 kts 323°
2026-04-20 19:02 -20.58444 -48.95149 36044 ft 513 kts 322°
2026-04-20 19:02 -20.52587 -48.99504 36048 ft 513 kts 322°
2026-04-20 19:03 -20.46737 -49.03864 36048 ft 513 kts 322°
2026-04-20 19:03 -20.40888 -49.08247 36049 ft 514 kts 322°
2026-04-20 19:04 -20.35032 -49.12623 36050 ft 514 kts 322°
2026-04-20 19:04 -20.29169 -49.16996 36050 ft 514 kts 322°
2026-04-20 19:05 -20.23312 -49.21359 36050 ft 514 kts 322°
2026-04-20 19:05 -20.17484 -49.25696 36050 ft 514 kts 322°
2026-04-20 19:06 -20.11612 -49.30061 36050 ft 515 kts 322°
2026-04-20 19:06 -20.05735 -49.34426 36050 ft 515 kts 322°
2026-04-20 19:07 -19.99856 -49.38788 36050 ft 515 kts 322°
2026-04-20 19:07 -19.93978 -49.43146 36050 ft 515 kts 322°
2026-04-20 19:08 -19.85161 -49.49674 36048 ft 515 kts 322°
2026-04-20 19:09 -19.79284 -49.54022 36047 ft 515 kts 322°
2026-04-20 19:09 -19.73435 -49.58344 36048 ft 515 kts 322°
2026-04-20 19:10 -19.67552 -49.62687 36048 ft 515 kts 322°
2026-04-20 19:10 -19.61673 -49.67024 36047 ft 515 kts 322°
2026-04-20 19:11 -19.55789 -49.71372 36046 ft 515 kts 322°
2026-04-20 19:11 -19.49899 -49.75708 36046 ft 515 kts 322°
2026-04-20 19:12 -19.44041 -49.80013 36046 ft 515 kts 322°
2026-04-20 19:12 -19.38152 -49.84338 36046 ft 515 kts 322°
2026-04-20 19:13 -19.32263 -49.88661 36045 ft 515 kts 322°
2026-04-20 19:13 -19.26357 -49.92986 36045 ft 515 kts 322°
2026-04-20 19:14 -19.20461 -49.97301 36044 ft 515 kts 322°
2026-04-20 19:14 -19.14592 -50.01593 36043 ft 515 kts 322°
2026-04-20 19:15 -19.08697 -50.05901 36043 ft 515 kts 322°
2026-04-20 19:15 -19.02807 -50.10216 36043 ft 515 kts 322°
2026-04-20 19:16 -18.96917 -50.14527 36042 ft 515 kts 322°
2026-04-20 19:16 -18.91017 -50.18835 36042 ft 515 kts 322°
2026-04-20 19:17 -18.85113 -50.23141 36041 ft 515 kts 322°
2026-04-20 19:17 -18.79204 -50.27446 36040 ft 516 kts 322°
2026-04-20 19:18 -18.73290 -50.31759 36041 ft 516 kts 322°
2026-04-20 19:18 -18.67425 -50.36028 36040 ft 516 kts 322°
2026-04-20 19:19 -18.61512 -50.40321 36036 ft 515 kts 322°
2026-04-20 19:19 -18.55596 -50.44614 36035 ft 515 kts 322°
2026-04-20 19:20 -18.49689 -50.48895 36035 ft 516 kts 322°
2026-04-20 19:20 -18.43765 -50.53184 36032 ft 516 kts 322°
2026-04-20 19:21 -18.37886 -50.57431 36028 ft 516 kts 322°
2026-04-20 19:21 -18.31944 -50.61722 36027 ft 516 kts 322°
2026-04-20 19:22 -18.26028 -50.65991 36024 ft 516 kts 322°
2026-04-20 19:22 -18.21102 -50.69544 36022 ft 516 kts 322°
2026-04-20 19:23 -18.15162 -50.73841 36024 ft 519 kts 322°
2026-04-20 19:23 -18.09204 -50.78150 36024 ft 519 kts 322°
2026-04-20 19:24 -18.03248 -50.82438 36024 ft 519 kts 322°
2026-04-20 19:24 -17.97285 -50.86725 36024 ft 519 kts 322°
2026-04-20 19:25 -17.91326 -50.91005 36023 ft 519 kts 322°
2026-04-20 19:25 -17.85407 -50.95256 36023 ft 519 kts 322°
2026-04-20 19:26 -17.79439 -50.99531 36024 ft 519 kts 322°
2026-04-20 19:26 -17.73479 -51.03798 36024 ft 519 kts 322°
2026-04-20 19:27 -17.67511 -51.08069 36023 ft 519 kts 322°
2026-04-20 19:27 -17.61550 -51.12348 36023 ft 519 kts 322°
2026-04-20 19:28 -17.55592 -51.16617 36024 ft 519 kts 322°
2026-04-20 19:28 -17.49629 -51.20875 36023 ft 519 kts 322°
2026-04-20 19:29 -17.43663 -51.25132 36023 ft 519 kts 322°
2026-04-20 19:29 -17.37703 -51.29381 36023 ft 519 kts 322°
2026-04-20 19:30 -17.31740 -51.33635 36024 ft 518 kts 322°
2026-04-20 19:30 -17.25786 -51.37877 36023 ft 518 kts 322°
2026-04-20 19:31 -17.19812 -51.42131 36023 ft 518 kts 322°
2026-04-20 19:31 -17.13853 -51.46373 36023 ft 518 kts 322°
2026-04-20 19:32 -17.07900 -51.50614 36024 ft 518 kts 322°
2026-04-20 19:32 -17.01945 -51.54867 36023 ft 518 kts 322°
2026-04-20 19:33 -16.96030 -51.59070 35977 ft 516 kts 322°
2026-04-20 19:33 -16.90094 -51.63282 35969 ft 515 kts 322°
2026-04-20 19:34 -16.84164 -51.67486 35965 ft 515 kts 322°
2026-04-20 19:34 -16.78235 -51.71687 35965 ft 516 kts 322°
2026-04-20 19:35 -16.72290 -51.75888 35966 ft 515 kts 322°
2026-04-20 19:35 -16.66385 -51.80061 35962 ft 515 kts 322°
2026-04-20 19:36 -16.60445 -51.84255 35955 ft 515 kts 323°
2026-04-20 19:36 -16.54513 -51.88453 35956 ft 515 kts 322°
2026-04-20 19:37 -16.48582 -51.92650 35953 ft 515 kts 323°
2026-04-20 19:37 -16.42652 -51.96830 35953 ft 515 kts 323°
2026-04-20 19:38 -16.36716 -52.01010 35954 ft 515 kts 323°
2026-04-20 19:38 -16.30776 -52.05189 35945 ft 515 kts 323°
2026-04-20 19:39 -16.24800 -52.09292 35943 ft 515 kts 324°
2026-04-20 19:39 -16.18759 -52.13338 35943 ft 515 kts 324°
2026-04-20 19:40 -16.12774 -52.17358 35941 ft 515 kts 324°
2026-04-20 19:40 -16.06753 -52.21408 35941 ft 515 kts 324°
2026-04-20 19:41 -16.00729 -52.25459 35942 ft 515 kts 324°
2026-04-20 19:41 -15.94740 -52.29501 35935 ft 511 kts 324°
2026-04-20 19:42 -15.88768 -52.33521 35934 ft 513 kts 324°
2026-04-20 19:42 -15.82760 -52.37559 35936 ft 515 kts 324°
2026-04-20 19:43 -15.76766 -52.41585 35935 ft 511 kts 324°
2026-04-20 19:43 -15.70786 -52.45597 35937 ft 514 kts 324°
2026-04-20 19:44 -15.64767 -52.49633 35936 ft 516 kts 324°
2026-04-20 19:44 -15.58772 -52.53650 35934 ft 510 kts 324°
2026-04-20 19:45 -15.52817 -52.57638 35937 ft 511 kts 324°
2026-04-20 19:45 -15.46824 -52.61647 35936 ft 513 kts 324°
2026-04-20 19:46 -15.40838 -52.65650 35935 ft 510 kts 324°
2026-04-20 19:46 -15.34873 -52.69635 35938 ft 512 kts 324°
2026-04-20 19:47 -15.28874 -52.73641 35940 ft 513 kts 324°
2026-04-20 19:47 -15.22938 -52.77602 35935 ft 509 kts 324°
2026-04-20 19:48 -15.16991 -52.81567 35935 ft 509 kts 324°
2026-04-20 19:48 -15.11038 -52.85534 35935 ft 509 kts 324°
2026-04-20 19:49 -15.05067 -52.89511 35935 ft 510 kts 324°
2026-04-20 19:49 -14.99097 -52.93484 35935 ft 510 kts 324°
2026-04-20 19:50 -14.93132 -52.97459 35935 ft 509 kts 324°
2026-04-20 19:50 -14.87163 -53.01424 35935 ft 510 kts 324°
2026-04-20 19:51 -14.81192 -53.05387 35935 ft 510 kts 324°
2026-04-20 19:51 -14.75264 -53.09320 35935 ft 510 kts 324°
2026-04-20 19:52 -14.69245 -53.13236 35936 ft 510 kts 326°
2026-04-20 19:52 -14.63047 -53.16828 35935 ft 511 kts 328°
2026-04-20 19:53 -14.56817 -53.20419 35935 ft 512 kts 327°
2026-04-20 19:53 -14.50615 -53.24024 35935 ft 511 kts 327°
2026-04-20 19:54 -14.44459 -53.27609 35935 ft 511 kts 327°
2026-04-20 19:54 -14.38254 -53.31231 35935 ft 511 kts 327°
2026-04-20 19:55 -14.32049 -53.34850 35935 ft 511 kts 327°
2026-04-20 19:55 -14.25872 -53.38448 35935 ft 512 kts 327°
2026-04-20 19:56 -14.20710 -53.41453 35935 ft 511 kts 327°
2026-04-20 19:56 -14.13466 -53.45673 35945 ft 512 kts 327°
2026-04-20 19:57 -14.07263 -53.49276 35952 ft 512 kts 327°
2026-04-20 19:57 -14.01043 -53.52886 35988 ft 513 kts 327°
2026-04-20 19:58 -13.94844 -53.56482 35986 ft 515 kts 327°
2026-04-20 19:58 -13.88619 -53.60094 35981 ft 513 kts 327°
2026-04-20 19:59 -13.82394 -53.63700 35988 ft 515 kts 327°
2026-04-20 19:59 -13.76102 -53.67345 35990 ft 515 kts 327°
2026-04-20 20:00 -13.69900 -53.70935 35984 ft 515 kts 327°
2026-04-20 20:00 -13.63661 -53.74545 35983 ft 514 kts 327°
2026-04-20 20:01 -13.57439 -53.78154 35984 ft 513 kts 327°
2026-04-20 20:01 -13.51225 -53.81752 35984 ft 513 kts 327°
2026-04-20 20:02 -13.44986 -53.85359 35983 ft 514 kts 327°
2026-04-20 20:02 -13.38747 -53.88964 35984 ft 513 kts 327°
2026-04-20 20:03 -13.32519 -53.92560 35980 ft 514 kts 327°
2026-04-20 20:03 -13.26274 -53.96164 35979 ft 514 kts 327°
2026-04-20 20:04 -13.20087 -53.99737 35979 ft 514 kts 327°
2026-04-20 20:04 -13.13849 -54.03333 35979 ft 514 kts 327°
2026-04-20 20:05 -13.07607 -54.06927 35979 ft 514 kts 327°
2026-04-20 20:05 -13.01370 -54.10516 35979 ft 514 kts 327°
2026-04-20 20:06 -12.95132 -54.14105 35977 ft 514 kts 327°
2026-04-20 20:06 -12.88898 -54.17689 35975 ft 514 kts 327°
2026-04-20 20:07 -12.83719 -54.20663 35975 ft 514 kts 327°
2026-04-20 20:07 -12.77477 -54.24243 35973 ft 514 kts 327°
2026-04-20 20:08 -12.71244 -54.27817 35974 ft 514 kts 327°
2026-04-20 20:08 -12.64996 -54.31397 35974 ft 514 kts 327°
2026-04-20 20:09 -12.58797 -54.34947 35970 ft 513 kts 327°
2026-04-20 20:09 -12.52565 -54.38522 35968 ft 513 kts 327°
2026-04-20 20:10 -12.46333 -54.42090 35963 ft 514 kts 327°
2026-04-20 20:10 -12.40092 -54.45659 35962 ft 514 kts 327°
2026-04-20 20:11 -12.33841 -54.49232 35963 ft 514 kts 327°
2026-04-20 20:11 -12.27600 -54.52800 35962 ft 514 kts 327°
2026-04-20 20:12 -12.21359 -54.56360 35960 ft 514 kts 328°
2026-04-20 20:12 -12.15121 -54.59917 35961 ft 514 kts 328°
2026-04-20 20:13 -12.05744 -54.65262 35953 ft 515 kts 328°
2026-04-20 20:13 -11.99484 -54.68828 35954 ft 515 kts 328°
2026-04-20 20:14 -11.93226 -54.72401 35951 ft 515 kts 328°
2026-04-20 20:14 -11.86998 -54.75952 35951 ft 515 kts 328°
2026-04-20 20:15 -11.80701 -54.79537 35952 ft 515 kts 328°
2026-04-20 20:15 -11.74483 -54.83076 35950 ft 515 kts 328°
2026-04-20 20:16 -11.68527 -54.86463 35945 ft 514 kts 328°
2026-04-20 20:16 -11.62266 -54.90022 35947 ft 515 kts 328°
2026-04-20 20:17 -11.56001 -54.93581 35945 ft 516 kts 328°
2026-04-20 20:17 -11.49733 -54.97140 35945 ft 516 kts 328°
2026-04-20 20:18 -11.43452 -55.00705 35946 ft 516 kts 328°
2026-04-20 20:18 -11.37169 -55.04269 35943 ft 516 kts 328°
2026-04-20 20:19 -11.30934 -55.07808 35944 ft 516 kts 328°
2026-04-20 20:19 -11.24667 -55.11361 35941 ft 515 kts 328°
2026-04-20 20:20 -11.18429 -55.14893 35935 ft 512 kts 328°
2026-04-20 20:20 -11.12208 -55.18413 35934 ft 512 kts 328°
2026-04-20 20:21 -11.05934 -55.21968 35910 ft 515 kts 331°
2026-04-20 20:21 -10.99670 -55.25501 35900 ft 515 kts 332°
2026-04-20 20:22 -10.93404 -55.29037 35900 ft 516 kts 333°
2026-04-20 20:22 -10.87133 -55.32574 35896 ft 515 kts 333°
2026-04-20 20:23 -10.80890 -55.36095 35896 ft 515 kts 333°
2026-04-20 20:23 -10.74618 -55.39633 35897 ft 515 kts 333°
2026-04-20 20:24 -10.68356 -55.43170 35895 ft 515 kts 333°
2026-04-20 20:24 -10.62075 -55.46712 35896 ft 515 kts 333°
2026-04-20 20:25 -10.55819 -55.50236 35896 ft 514 kts 333°
2026-04-20 20:25 -10.49568 -55.53757 35894 ft 514 kts 333°
2026-04-20 20:26 -10.43310 -55.57281 35891 ft 514 kts 333°
2026-04-20 20:26 -10.37058 -55.60801 35890 ft 514 kts 333°
2026-04-20 20:27 -10.30834 -55.64300 35887 ft 514 kts 333°
2026-04-20 20:27 -10.24575 -55.67816 35889 ft 514 kts 333°
2026-04-20 20:28 -10.18319 -55.71329 35888 ft 514 kts 333°
2026-04-20 20:28 -10.12063 -55.74843 35885 ft 513 kts 333°
2026-04-20 20:29 -10.05824 -55.78342 35888 ft 513 kts 333°
2026-04-20 20:29 -9.99568 -55.81850 35879 ft 512 kts 332°
2026-04-20 20:30 -9.93337 -55.85351 35878 ft 512 kts 332°
2026-04-20 20:30 -9.87095 -55.88852 35879 ft 512 kts 332°
2026-04-20 20:31 -9.80845 -55.92354 35878 ft 512 kts 332°
2026-04-20 20:31 -9.74608 -55.95847 35879 ft 512 kts 332°
2026-04-20 20:32 -9.68371 -55.99339 35880 ft 512 kts 333°
2026-04-20 20:32 -9.62136 -56.02740 35880 ft 513 kts 333°
2026-04-20 20:33 -9.55841 -56.06160 35881 ft 513 kts 333°
2026-04-20 20:33 -9.49541 -56.09588 35881 ft 513 kts 333°
2026-04-20 20:34 -9.43258 -56.13008 35884 ft 513 kts 333°
2026-04-20 20:34 -9.37004 -56.16414 35883 ft 513 kts 333°
2026-04-20 20:35 -9.30720 -56.19840 35884 ft 513 kts 333°
2026-04-20 20:35 -9.24433 -56.23263 35887 ft 513 kts 333°
2026-04-20 20:36 -9.18134 -56.26689 35889 ft 513 kts 333°
2026-04-20 20:36 -9.11868 -56.30096 35891 ft 513 kts 333°
2026-04-20 20:37 -9.05575 -56.33517 35891 ft 514 kts 333°
2026-04-20 20:37 -8.99270 -56.36942 35891 ft 514 kts 333°
2026-04-20 20:38 -8.92975 -56.40361 35892 ft 514 kts 333°
2026-04-20 20:38 -8.86667 -56.43785 35893 ft 514 kts 333°
2026-04-20 20:39 -8.80363 -56.47206 35893 ft 514 kts 333°
2026-04-20 20:39 -8.74089 -56.50609 35893 ft 514 kts 333°
2026-04-20 20:40 -8.67791 -56.54024 35894 ft 514 kts 333°
2026-04-20 20:40 -8.61492 -56.57439 35894 ft 514 kts 333°
2026-04-20 20:41 -8.55178 -56.60860 35894 ft 514 kts 333°
2026-04-20 20:41 -8.48868 -56.64277 35894 ft 514 kts 334°
2026-04-20 20:42 -8.42565 -56.67690 35894 ft 514 kts 334°
2026-04-20 20:42 -8.36244 -56.71112 35894 ft 514 kts 334°
2026-04-20 20:43 -8.29982 -56.74503 35893 ft 514 kts 333°
2026-04-20 20:43 -8.23673 -56.77915 35892 ft 514 kts 333°
2026-04-20 20:44 -8.17370 -56.81322 35892 ft 514 kts 333°
2026-04-20 20:44 -8.11069 -56.84726 35893 ft 514 kts 334°
2026-04-20 20:45 -8.04960 -56.88498 35893 ft 515 kts 326°
2026-04-20 20:45 -7.99256 -56.92909 35892 ft 517 kts 323°
2026-04-20 20:46 -7.93659 -56.97387 35891 ft 517 kts 323°
2026-04-20 20:46 -7.87994 -57.01864 35888 ft 516 kts 323°
2026-04-20 20:47 -7.82326 -57.06319 35888 ft 516 kts 323°
2026-04-20 20:47 -7.76647 -57.10781 35889 ft 516 kts 323°
2026-04-20 20:48 -7.70985 -57.15226 35888 ft 516 kts 323°
2026-04-20 20:48 -7.65307 -57.19678 35886 ft 516 kts 323°
2026-04-20 20:49 -7.59660 -57.24102 35885 ft 516 kts 323°
2026-04-20 20:49 -7.53981 -57.28550 35884 ft 516 kts 323°
2026-04-20 20:50 -7.48312 -57.32988 35884 ft 516 kts 323°
2026-04-20 20:50 -7.42638 -57.37428 35884 ft 516 kts 323°
2026-04-20 20:51 -7.36966 -57.41865 35883 ft 516 kts 323°
2026-04-20 20:51 -7.31334 -57.46270 35880 ft 515 kts 323°
2026-04-20 20:52 -7.26592 -57.49977 35880 ft 515 kts 323°
2026-04-20 20:52 -7.20001 -57.55128 35880 ft 515 kts 323°
2026-04-20 20:53 -7.15260 -57.58832 35878 ft 515 kts 323°
2026-04-20 20:53 -7.09622 -57.63236 35877 ft 515 kts 323°
2026-04-20 20:54 -7.03950 -57.67664 35876 ft 515 kts 323°
2026-04-20 20:54 -6.98295 -57.72078 35876 ft 515 kts 323°
2026-04-20 20:55 -6.92626 -57.76502 35876 ft 515 kts 323°
2026-04-20 20:55 -6.86960 -57.80922 35876 ft 515 kts 323°
2026-04-20 20:56 -6.81297 -57.85338 35876 ft 515 kts 323°
2026-04-20 20:56 -6.75642 -57.89747 35876 ft 515 kts 323°
2026-04-20 20:57 -6.69980 -57.94160 35876 ft 515 kts 323°
2026-04-20 20:57 -6.64316 -57.98572 35876 ft 515 kts 323°
2026-04-20 20:58 -6.58679 -58.02963 35876 ft 515 kts 323°
2026-04-20 20:58 -6.53009 -58.07378 35876 ft 515 kts 323°
2026-04-20 20:59 -6.47344 -58.11788 35876 ft 515 kts 323°
2026-04-20 20:59 -6.41676 -58.16199 35876 ft 515 kts 323°
2026-04-20 21:00 -6.36007 -58.20609 35876 ft 515 kts 323°
2026-04-20 21:00 -6.30336 -58.25019 35876 ft 515 kts 323°
2026-04-20 21:01 -6.24667 -58.29427 35876 ft 515 kts 323°
2026-04-20 21:01 -6.19006 -58.33828 35876 ft 515 kts 323°
2026-04-20 21:02 -6.13368 -58.38209 35876 ft 515 kts 323°
2026-04-20 21:02 -6.07702 -58.42611 35876 ft 515 kts 323°
2026-04-20 21:03 -6.02033 -58.47014 35876 ft 515 kts 323°
2026-04-20 21:03 -5.96363 -58.51416 35876 ft 515 kts 323°
2026-04-20 21:04 -5.90686 -58.55823 35876 ft 515 kts 323°
2026-04-20 21:04 -5.85017 -58.60222 35876 ft 515 kts 323°
2026-04-20 21:05 -5.79342 -58.64625 35876 ft 515 kts 323°
2026-04-20 21:05 -5.73679 -58.69018 35876 ft 515 kts 323°
2026-04-20 21:06 -5.68052 -58.73381 35876 ft 515 kts 323°
2026-04-20 21:06 -5.62377 -58.77781 35876 ft 515 kts 323°
2026-04-20 21:07 -5.56698 -58.82182 35876 ft 514 kts 323°
2026-04-20 21:07 -5.51036 -58.86570 35876 ft 514 kts 323°
2026-04-20 21:08 -5.45363 -58.90964 35876 ft 514 kts 323°
2026-04-20 21:08 -5.39734 -58.95324 35876 ft 514 kts 323°
2026-04-20 21:09 -5.34072 -58.99708 35876 ft 514 kts 323°
2026-04-20 21:09 -5.28402 -59.04097 35876 ft 514 kts 323°
2026-04-20 21:10 -5.22732 -59.08485 35876 ft 515 kts 323°
2026-04-20 21:10 -5.17057 -59.12876 35876 ft 514 kts 323°
2026-04-20 21:11 -5.11384 -59.17265 35876 ft 515 kts 323°
2026-04-20 21:11 -5.05714 -59.21650 35876 ft 515 kts 323°
2026-04-20 21:12 -5.00075 -59.26010 35876 ft 515 kts 323°
2026-04-20 21:12 -4.94398 -59.30399 35849 ft 515 kts 323°
2026-04-20 21:13 -4.91565 -59.32588 35464 ft 515 kts 323°
2026-04-20 21:13 -4.88722 -59.34785 34738 ft 516 kts 323°
2026-04-20 21:13 -4.85880 -59.36981 34097 ft 515 kts 323°
2026-04-20 21:13 -4.83056 -59.39163 33592 ft 510 kts 323°
2026-04-20 21:14 -4.80253 -59.41329 33073 ft 506 kts 323°
2026-04-20 21:14 -4.77476 -59.43474 32547 ft 502 kts 323°
2026-04-20 21:14 -4.74715 -59.45606 32059 ft 498 kts 323°
2026-04-20 21:14 -4.71982 -59.47718 31568 ft 494 kts 323°
2026-04-20 21:15 -4.69269 -59.49813 31075 ft 490 kts 323°
2026-04-20 21:15 -4.66586 -59.51885 30585 ft 486 kts 323°
2026-04-20 21:15 -4.63913 -59.53948 30097 ft 482 kts 323°
2026-04-20 21:15 -4.61262 -59.55995 29607 ft 478 kts 323°
2026-04-20 21:16 -4.58638 -59.58021 29121 ft 474 kts 323°
2026-04-20 21:16 -4.56026 -59.60037 28633 ft 471 kts 323°
2026-04-20 21:16 -4.53485 -59.61999 28108 ft 468 kts 323°
2026-04-20 21:16 -4.50892 -59.64000 27422 ft 469 kts 323°
2026-04-20 21:17 -4.48326 -59.65980 26993 ft 464 kts 323°
2026-04-20 21:17 -4.45783 -59.67942 26521 ft 460 kts 323°
2026-04-20 21:17 -4.43260 -59.69888 26053 ft 456 kts 323°
2026-04-20 21:17 -4.40755 -59.71821 25583 ft 452 kts 323°
2026-04-20 21:18 -4.38279 -59.73732 25112 ft 448 kts 323°
2026-04-20 21:18 -4.35813 -59.75634 24641 ft 445 kts 323°
2026-04-20 21:18 -4.33373 -59.77517 24172 ft 441 kts 323°
2026-04-20 21:18 -4.30945 -59.79391 23703 ft 438 kts 323°
2026-04-20 21:19 -4.28539 -59.81246 23237 ft 435 kts 323°
2026-04-20 21:19 -4.26148 -59.83090 22773 ft 432 kts 323°
2026-04-20 21:19 -4.23766 -59.84926 22309 ft 429 kts 323°
2026-04-20 21:20 -4.19071 -59.88545 21393 ft 423 kts 323°
2026-04-20 21:20 -4.16736 -59.90346 20935 ft 421 kts 323°
2026-04-20 21:20 -4.14457 -59.92102 20484 ft 418 kts 323°
2026-04-20 21:20 -4.12148 -59.93876 20025 ft 415 kts 324°
2026-04-20 21:21 -4.09674 -59.95319 19584 ft 410 kts 335°
2026-04-20 21:21 -4.07052 -59.96408 19149 ft 406 kts 340°
2026-04-20 21:21 -4.04377 -59.97315 18716 ft 403 kts 343°
2026-04-20 21:21 -4.01696 -59.98110 18277 ft 400 kts 345°
2026-04-20 21:22 -3.99016 -59.98868 17846 ft 397 kts 345°
2026-04-20 21:22 -3.96406 -59.99620 17429 ft 394 kts 345°
2026-04-20 21:22 -3.93786 -60.00387 17004 ft 391 kts 344°
2026-04-20 21:22 -3.91190 -60.01156 16573 ft 388 kts 344°
2026-04-20 21:23 -3.88610 -60.01924 16153 ft 385 kts 344°
2026-04-20 21:23 -3.86041 -60.02690 15734 ft 382 kts 343°
2026-04-20 21:23 -3.83499 -60.03451 15316 ft 379 kts 343°
2026-04-20 21:23 -3.80984 -60.04203 14899 ft 376 kts 343°
2026-04-20 21:24 -3.78506 -60.04945 14483 ft 374 kts 343°
2026-04-20 21:24 -3.75987 -60.05699 14059 ft 371 kts 343°
2026-04-20 21:24 -3.73557 -60.06427 13656 ft 369 kts 343°
2026-04-20 21:24 -3.71105 -60.07161 13257 ft 366 kts 343°
2026-04-20 21:25 -3.68665 -60.07891 12864 ft 363 kts 343°
2026-04-20 21:25 -3.66239 -60.08617 12467 ft 362 kts 343°
2026-04-20 21:25 -3.63851 -60.09331 12060 ft 361 kts 343°
2026-04-20 21:25 -3.61446 -60.10051 11638 ft 359 kts 343°
2026-04-20 21:26 -3.59068 -60.10763 11221 ft 357 kts 343°
2026-04-20 21:26 -3.56684 -60.11476 10857 ft 354 kts 343°
2026-04-20 21:26 -3.54361 -60.12171 10703 ft 344 kts 343°
2026-04-20 21:26 -3.52102 -60.12847 10546 ft 334 kts 343°
2026-04-20 21:27 -3.49908 -60.13503 10400 ft 325 kts 342°
2026-04-20 21:27 -3.47764 -60.14144 10257 ft 316 kts 342°
2026-04-20 21:27 -3.45691 -60.14764 10119 ft 306 kts 342°
2026-04-20 21:27 -3.43677 -60.15366 9984 ft 297 kts 342°
2026-04-20 21:28 -3.41728 -60.15949 9836 ft 289 kts 342°
2026-04-20 21:28 -3.39814 -60.16521 9537 ft 285 kts 342°
2026-04-20 21:28 -3.37903 -60.17093 9204 ft 297 kts 342°
2026-04-20 21:28 -3.35913 -60.17688 8862 ft 297 kts 342°
2026-04-20 21:29 -3.33946 -60.18276 8521 ft 292 kts 342°
2026-04-20 21:29 -3.31993 -60.18860 8186 ft 293 kts 342°
2026-04-20 21:29 -3.30052 -60.19440 7850 ft 290 kts 342°
2026-04-20 21:29 -3.28112 -60.20020 7517 ft 289 kts 342°
2026-04-20 21:30 -3.26190 -60.20595 7186 ft 288 kts 342°
2026-04-20 21:30 -3.24272 -60.21146 7009 ft 286 kts 343°
2026-04-20 21:30 -3.22461 -60.21967 6918 ft 286 kts 324°
2026-04-20 21:30 -3.20930 -60.23222 6695 ft 284 kts 323°
2026-04-20 21:31 -3.19235 -60.24234 6208 ft 283 kts 332°
2026-04-20 21:31 -3.17465 -60.25066 5807 ft 279 kts 334°
2026-04-20 21:31 -3.15707 -60.25847 5601 ft 281 kts 335°
2026-04-20 21:31 -3.13911 -60.26617 5549 ft 279 kts 341°
2026-04-20 21:32 -3.12039 -60.26931 5456 ft 268 kts 357°
2026-04-20 21:32 -3.10237 -60.26787 5358 ft 250 kts
2026-04-20 21:32 -3.08585 -60.26480 5209 ft 234 kts 10°
2026-04-20 21:32 -3.07007 -60.26155 4724 ft 231 kts 11°
2026-04-20 21:33 -3.05477 -60.25693 4169 ft 228 kts 28°
2026-04-20 21:33 -3.04348 -60.24707 3988 ft 204 kts 53°
2026-04-20 21:33 -3.03859 -60.23459 3759 ft 186 kts 76°
2026-04-20 21:33 -3.03749 -60.22193 3374 ft 181 kts 87°
2026-04-20 21:34 -3.03774 -60.20945 3123 ft 179 kts 90°
2026-04-20 21:34 -3.03817 -60.19699 2883 ft 179 kts 90°
2026-04-20 21:34 -3.03836 -60.18455 2641 ft 179 kts 89°
2026-04-20 21:34 -3.03843 -60.17202 2400 ft 182 kts 89°
2026-04-20 21:35 -3.03846 -60.15942 2160 ft 185 kts 89°
2026-04-20 21:35 -3.03848 -60.14670 1937 ft 178 kts 89°
2026-04-20 21:35 -3.03849 -60.13466 1688 ft 170 kts 89°
2026-04-20 21:35 -3.03849 -60.12295 1444 ft 166 kts 89°
2026-04-20 21:36 -3.03834 -60.11153 1206 ft 164 kts 88°
2026-04-20 21:36 -3.03825 -60.10002 944 ft 166 kts 89°
2026-04-20 21:36 -3.03840 -60.08844 779 ft 168 kts 90°
2026-04-20 21:36 -3.03852 -60.07665 545 ft 170 kts 89°
2026-04-20 21:37 -3.03851 -60.06881 419 ft 169 kts 90°
2026-04-20 21:37 -3.03861 -60.05721 280 ft 162 kts 86°
2026-04-20 21:37 -3.03859 -60.04461 278 ft 95 kts 89°
2026-04-20 21:37 -3.03859 -60.04121 278 ft 53 kts 90°
2026-04-20 21:38 -3.03861 -60.03890 277 ft 26 kts 90°
2026-04-20 21:38 -3.03828 -60.03780 277 ft 12 kts 21°
2026-04-20 21:38 -3.03749 -60.03775 277 ft 11 kts 340°
2026-04-20 21:38 -3.03694 -60.03828 277 ft 11 kts 296°
2026-04-20 21:39 -3.03666 -60.03897 277 ft 10 kts 292°
2026-04-20 21:39 -3.03651 -60.03966 277 ft 10 kts 279°
2026-04-20 21:39 -3.03636 -60.04033 277 ft 10 kts 287°
2026-04-20 21:39 -3.03617 -60.04095 277 ft 9 kts 285°
2026-04-20 21:40 -3.03601 -60.04156 277 ft 9 kts 285°
2026-04-20 21:40 -3.03581 -60.04213 277 ft 9 kts 294°
2026-04-20 21:40 -3.03553 -60.04265 277 ft 9 kts 306°
2026-04-20 21:40 -3.03510 -60.04314 277 ft 10 kts 313°
2026-04-20 21:41 -3.03456 -60.04351 277 ft 9 kts 335°
2026-04-20 21:41 -3.03397 -60.04373 277 ft 9 kts 344°
2026-04-20 21:41 -3.03338 -60.04376 277 ft 8 kts 21°
2026-04-20 21:41 -3.03295 -60.04339 277 ft 5 kts 22°
2026-04-20 21:42 -3.03270 -60.04346 277 ft 4 kts 340°
2026-04-20 21:42 -3.03246 -60.04355 277 ft 4 kts 341°
2026-04-20 21:42 -3.03235 -60.04358 277 ft 0 kts 341°